Weather History for KC29 - April, 2014

Change the Weather History Date:

Sunday, April 27, 2014

  Actual Average (KMSN) Record (KMSN)
Temperature  
Mean Temperature 46 °F 51 °F  
Max Temperature 52 °F 62 °F 85 °F (1952)
Min Temperature 41 °F 40 °F 24 °F (1976)
Degree Days  
Heating Degree Days 18 14  
Month to date heating degree days 518  
Since 1 July heating degree days 6967  
Cooling Degree Days 0 0  
Month to date cooling degree days 0  
Year to date cooling degree days 0  
Moisture  
Dew Point 35 °F    
Average Humidity 67    
Maximum Humidity 85    
Minimum Humidity 44    
Precipitation  
Precipitation 0.17 in 0.12 in 1.79 in (1956)
Month to date precipitation 3.05  
Year to date precipitation 7.93  
Snow  
Snow 0.00 in 0.00 in 1.00 in (1988)
Month to date snowfall 2.5  
Since 1 July snowfall 50.6  
Snow Depth -    
Sea Level Pressure  
Sea Level Pressure 29.93 in    
Wind  
Wind Speed 15 mph (East)    
Max Wind Speed 26 mph    
Max Gust Speed 37 mph    
Visibility 10 miles    
Events      
T = Trace of Precipitation, MM = Missing Value Source: NWS Daily Summary

Daily Weather History Graph

Daily Weather History Graph

Search for Another Location

Airport or City:

Trip Planner

Search our weather history database for the weather conditions in past years. The results will help you decide how hot, cold, wet, or windy it might be!

Date:

Astronomy

Apr. 27, 2014 Rise Set
Actual Time 5:57 AM CDT 7:54 PM CDT
Civil Twilight 5:26 AM CDT 8:25 PM CDT
Nautical Twilight 4:49 AM CDT 9:03 PM CDT
Astronomical Twilight 4:08 AM CDT 9:44 PM CDT
Moon 5:01 AM CDT (4/27) 6:26 PM CDT (4/27)
Length of Visible Light 14h 58m
Length of Day
13h 57m
Waning Crescent, 3% of the Moon is Illuminated
Apr 27
Waning Crescent
Apr 29
New
May 6
First Quarter
May 14
Full
May 21
Last Quarter

Hourly Weather History & Observations

Time (CDT) Temp. Windchill Dew Point Humidity Pressure Visibility Wind Dir Wind Speed Gust Speed Precip Events Conditions
12:10 AM 41.9 °F 34.6 °F 28.2 °F 58% 30.05 in 10.0 mi ENE 13.8 mph 23.0 mph N/A   Overcast
12:30 AM 41.9 °F 34.6 °F 28.2 °F 58% 30.04 in 10.0 mi ENE 13.8 mph 18.4 mph N/A   Overcast
12:50 AM 41.9 °F 34.3 °F 28.2 °F 58% 30.05 in 10.0 mi East 15.0 mph 20.7 mph N/A   Mostly Cloudy
1:10 AM 42.3 °F 35.1 °F 28.4 °F 58% 30.06 in 10.0 mi East 13.8 mph 20.7 mph N/A   Overcast
1:30 AM 42.6 °F 34.6 °F 29.3 °F 59% 30.03 in 10.0 mi East 17.3 mph 24.2 mph N/A   Overcast
1:50 AM 41.5 °F 35.0 °F 31.8 °F 68% 30.06 in 10.0 mi East 11.5 mph 20.7 mph N/A   Overcast
2:10 AM 41.5 °F 33.8 °F 32.0 °F 69% 30.04 in 10.0 mi East 15.0 mph 18.4 mph N/A   Overcast
2:30 AM 41.9 °F 36.3 °F 32.4 °F 69% 30.04 in 10.0 mi East 9.2 mph 17.3 mph N/A   Overcast
2:50 AM 42.3 °F 35.9 °F 32.0 °F 67% 30.05 in 10.0 mi East 11.5 mph 18.4 mph N/A   Overcast
3:10 AM 41.9 °F 35.9 °F 32.5 °F 69% 30.03 in 10.0 mi East 10.4 mph 18.4 mph N/A   Overcast
3:30 AM 42.1 °F 35.2 °F 32.9 °F 70% 30.03 in 10.0 mi East 12.7 mph - N/A   Overcast
3:50 AM 42.1 °F 35.2 °F 32.9 °F 70% 30.01 in 10.0 mi East 12.7 mph 18.4 mph N/A   Overcast
4:10 AM 42.3 °F 35.1 °F 33.1 °F 70% 30.01 in 10.0 mi East 13.8 mph 20.7 mph N/A   Overcast
4:35 AM 42.8 °F 35.4 °F 33.8 °F 70% 30.01 in 10.0 mi East 15.0 mph 20.7 mph N/A   Overcast
5:10 AM 42.8 °F 34.8 °F 34.0 °F 71% 30.00 in 10.0 mi ESE 17.3 mph 21.9 mph N/A   Overcast
5:30 AM 42.8 °F 34.8 °F 34.7 °F 73% 29.99 in 10.0 mi ESE 17.3 mph 20.7 mph N/A   Overcast
5:55 AM 42.1 °F 34.5 °F 36.3 °F 80% 29.98 in 10.0 mi East 15.0 mph 21.9 mph 0.01 in   Overcast
6:10 AM 42.3 °F 34.4 °F 36.5 °F 80% 29.97 in 10.0 mi ESE 16.1 mph 21.9 mph N/A   Overcast
6:30 AM 42.8 °F 35.4 °F 36.3 °F 78% 29.97 in 10.0 mi ESE 15.0 mph - N/A   Overcast
6:50 AM 42.8 °F 35.4 °F 36.5 °F 78% 29.98 in 10.0 mi ESE 15.0 mph - N/A   Overcast
7:10 AM 42.8 °F 36.6 °F 36.9 °F 80% 30.00 in 10.0 mi ESE 11.5 mph - N/A   Overcast
7:50 AM 42.3 °F 36.3 °F 37.8 °F 84% 30.00 in 7.0 mi East 10.4 mph 16.1 mph 0.04 in   Overcast
8:10 AM 42.1 °F 34.9 °F 37.8 °F 85% 29.99 in 10.0 mi East 13.8 mph 19.6 mph N/A   Overcast
8:30 AM 42.1 °F 35.2 °F 37.8 °F 85% 29.98 in 10.0 mi East 12.7 mph 19.6 mph 0.01 in   Overcast
8:55 AM 42.1 °F 33.9 °F 37.8 °F 85% 29.94 in 10.0 mi East 17.3 mph 24.2 mph 0.01 in   Overcast
9:10 AM 42.4 °F 34.1 °F 37.6 °F 83% 29.93 in 10.0 mi East 18.4 mph 25.3 mph N/A   Overcast
9:30 AM 43.2 °F 35.6 °F 37.6 °F 81% 29.95 in 10.0 mi ESE 16.1 mph 24.2 mph N/A   Scattered Clouds
9:50 AM 43.5 °F 34.5 °F 36.9 °F 77% 29.91 in 10.0 mi East 23.0 mph 31.1 mph N/A   Scattered Clouds
10:10 AM 43.9 °F 35.9 °F 37.2 °F 77% 29.92 in 10.0 mi East 18.4 mph 33.4 mph N/A   Scattered Clouds
10:30 AM 44.6 °F 36.1 °F 36.3 °F 73% 29.94 in 10.0 mi East 21.9 mph 26.5 mph N/A   Mostly Cloudy
10:50 AM 46.9 °F - 37.0 °F 68% 29.90 in 10.0 mi East 26.5 mph 31.1 mph N/A   Mostly Cloudy
11:10 AM 45.5 °F 37.1 °F 35.1 °F 67% 29.90 in 10.0 mi ESE 23.0 mph 36.8 mph N/A   Mostly Cloudy
11:30 AM 45.3 °F 39.0 °F 35.8 °F 69% 29.93 in 10.0 mi ESE 13.8 mph 20.7 mph N/A   Mostly Cloudy
11:50 AM 45.5 °F 38.6 °F 35.4 °F 68% 29.92 in 10.0 mi East 16.1 mph 23.0 mph N/A   Mostly Cloudy
12:10 PM 46.2 °F 39.8 °F 34.7 °F 64% 29.92 in 10.0 mi East 15.0 mph 25.3 mph N/A   Scattered Clouds
12:30 PM 47.5 °F - 33.8 °F 59% 29.91 in 10.0 mi East 18.4 mph 24.2 mph N/A   Mostly Cloudy
12:50 PM 47.7 °F - 33.6 °F 58% 29.91 in 10.0 mi East 16.1 mph 24.2 mph N/A   Mostly Cloudy
1:10 PM 48.2 °F - 33.6 °F 57% 29.90 in 10.0 mi East 13.8 mph 20.7 mph N/A   Mostly Cloudy
1:30 PM 49.6 °F - 33.8 °F 54% 29.90 in 10.0 mi East 16.1 mph 28.8 mph N/A   Mostly Cloudy
1:50 PM 49.1 °F - 33.6 °F 55% 29.90 in 10.0 mi East 17.3 mph 31.1 mph N/A   Overcast
2:10 PM 49.3 °F - 32.9 °F 53% 29.90 in 10.0 mi East 18.4 mph 27.6 mph N/A   Overcast
2:30 PM 49.1 °F - 32.0 °F 52% 29.88 in 10.0 mi East 21.9 mph 31.1 mph N/A   Overcast
2:50 PM 51.1 °F - 31.8 °F 48% 29.86 in 10.0 mi East 21.9 mph 34.5 mph N/A   Mostly Cloudy
3:10 PM 52.0 °F - 31.8 °F 46% 29.84 in 10.0 mi East 24.2 mph 34.5 mph N/A   Scattered Clouds
3:30 PM 51.8 °F - 30.9 °F 45% 29.82 in 10.0 mi East 23.0 mph 33.4 mph N/A   Clear
3:50 PM 51.3 °F - 30.9 °F 46% 29.83 in 10.0 mi East 20.7 mph 29.9 mph N/A   Mostly Cloudy
4:10 PM 51.8 °F - 31.3 °F 46% 29.83 in 10.0 mi East 16.1 mph 26.5 mph N/A   Overcast
4:30 PM 52.3 °F - 30.7 °F 44% 29.82 in 10.0 mi East 23.0 mph 31.1 mph N/A   Overcast
5:10 PM 50.5 °F - 32.2 °F 49% 29.81 in 10.0 mi East 21.9 mph 33.4 mph N/A   Overcast
5:30 PM 49.5 °F - 33.1 °F 53% 29.83 in 10.0 mi East 18.4 mph 27.6 mph N/A   Overcast
5:50 PM 48.9 °F - 34.5 °F 58% 29.86 in 5.0 mi East 23.0 mph 34.5 mph 0.04 in   Overcast
6:10 PM 47.1 °F - 37.0 °F 68% 29.86 in 10.0 mi East 13.8 mph 24.2 mph 0.03 in   Overcast
6:30 PM 47.8 °F - 36.0 °F 63% 29.88 in 10.0 mi East 12.7 mph 21.9 mph 0.03 in   Overcast
6:50 PM 47.7 °F - 36.0 °F 64% 29.91 in 10.0 mi East 11.5 mph - 0.03 in   Overcast
7:10 PM 47.3 °F - 35.8 °F 64% 29.92 in 10.0 mi East 11.5 mph 17.3 mph N/A   Overcast
7:30 PM 47.7 °F - 35.4 °F 63% 29.92 in 10.0 mi East 10.4 mph 17.3 mph N/A   Overcast
7:50 PM 47.3 °F - 36.5 °F 66% 29.97 in 10.0 mi WNW 5.8 mph - N/A   Overcast
8:10 PM 47.3 °F - 36.5 °F 66% 29.96 in 10.0 mi NNW 6.9 mph - N/A   Overcast
8:30 PM 46.4 °F 42.9 °F 37.8 °F 72% 29.96 in 10.0 mi NNE 6.9 mph - N/A   Overcast
8:50 PM 46.0 °F 43.1 °F 38.3 °F 74% 29.94 in 10.0 mi ENE 5.8 mph - N/A   Overcast
9:10 PM 46.2 °F 41.7 °F 38.3 °F 74% 29.92 in 10.0 mi ENE 9.2 mph - N/A   Overcast
9:30 PM 45.9 °F 41.2 °F 39.2 °F 78% 29.92 in 10.0 mi ENE 9.2 mph - N/A   Overcast
9:50 PM 45.5 °F 40.8 °F 39.4 °F 79% 29.90 in 10.0 mi ENE 9.2 mph - 0.01 in   Overcast
10:10 PM 44.8 °F 38.0 °F 39.9 °F 83% 29.87 in 10.0 mi ENE 15.0 mph - 0.01 in   Overcast
10:30 PM 45.0 °F 37.4 °F 40.3 °F 84% 29.84 in 10.0 mi East 18.4 mph 23.0 mph 0.02 in   Overcast
10:50 PM 45.3 °F 37.3 °F 40.3 °F 83% 29.82 in 10.0 mi East 20.7 mph 26.5 mph 0.03 in   Overcast
11:10 PM 45.5 °F 38.9 °F 40.3 °F 82% 29.81 in 10.0 mi East 15.0 mph 25.3 mph N/A   Overcast
11:30 PM 46.4 °F 39.8 °F 39.2 °F 76% 29.83 in 10.0 mi East 16.1 mph 21.9 mph N/A   Overcast
11:50 PM 47.3 °F - 38.5 °F 71% 29.83 in 10.0 mi East 17.3 mph 23.0 mph N/A   Overcast